[[{"header":{"parameterUnit":"m.s-1","parameterCategory":1,"la1":30.2991,"la2":30.254,"lo1":-89.0895,"lo2":-89.0444,"dy":0.0017,"dx":0.0017,"nx":28,"ny":28,"refTime":"2025-08-06T03:00:00:Z","depth":0,"parameterNumber":2,"parameterNumberName":"U-component_of_WINDS"},"data":[0,0,0,0,0,0,0,0,0,0,0,0,0,0,0,0,0,0,0,0,0,0,0,0,0,0,0,0,0,0,0,0,0,0,0,0,0,0,0,0,0,0,0,0,0,0,0,0,0,0,0,0,0,0,0,0,0,0,0.4835,0.4836,0,0.4901,0.4902,0.4903,0.4902,0.4901,0.49,0.4899,0.4966,0.4968,0.4971,0,0,0,0,0,0,0,0,0,0,0,0,0,0.471,0.4712,0.4835,0.4836,0.4837,0.4901,0.4902,0.4903,0.4902,0.4901,0.49,0.4899,0.4965,0.4968,0.4971,0,0,0,0,0,0,0,0,0,0,0,0,0,0.4769,0.4713,0.4835,0.4844,0.4846,0.4901,0.4902,0.4903,0.4902,0.4901,0.49,0.4898,0.4964,0.4968,0.4972,0.5022,0,0,0.4983,0.4985,0,0,0,0,0,0,0,0,0.4766,0.4774,0.4842,0.4844,0.4846,0.4892,0.4882,0.4943,0.4902,0.4881,0.4899,0.4898,0.4942,0.4948,0.4963,0.5025,0.5028,0.4984,0.4986,0.4988,0.4989,0,0,0,0,0,0,0,0.4762,0.4771,0.4861,0.4843,0.4845,0.4845,0.4852,0.4894,0.4918,0.4883,0.4883,0.489,0.4943,0.4959,0.4965,0.5029,0.4984,0.4987,0.499,0.4991,0.5137,0.5139,0,0,0,0,0,0,0.4756,0.4767,0.4859,0.4863,0.4802,0.4849,0.4856,0.4878,0.4918,0.4922,0.4891,0.489,0.4953,0.496,0.4967,0.503,0.4988,0.4991,0.4994,0.5136,0.5137,0.5139,0,0,0,0,0,0,0.4753,0.4764,0.4857,0.4815,0.4827,0.4852,0.4877,0.488,0.4897,0.4924,0.4929,0.4904,0.4953,0.4961,0.5009,0.5032,0.4993,0.4997,0.5134,0.5136,0.5138,0.5154,0,0,0,0,0,0,0.4749,0.4763,0.4782,0.4816,0.4829,0.4897,0.4878,0.4883,0.4903,0.4902,0.4937,0.4941,0.4952,0.5003,0.5013,0.5036,0.5,0.5132,0.5135,0.5138,0.5152,0.5157,0.5161,0,0,0,0,0,0.4745,0.4783,0.4783,0.4794,0.4854,0.4898,0.4906,0.4918,0.4905,0.4925,0.4943,0.494,0.5028,0.5008,0.5019,0.5044,0.513,0.5134,0.5137,0.515,0.5156,0.5161,0,0,0,0,0,0,0.475,0.4788,0.4788,0.4838,0.4865,0.4898,0.4923,0.4924,0.4955,0.4952,0.4966,0.4973,0.5021,0.5037,0.5014,0.5096,0.5078,0.5083,0.5083,0.5089,0.5094,0.5089,0.5003,0,0,0,0,0,0.4758,0.4791,0.4821,0.4863,0.4877,0.4898,0.4917,0.4924,0.4953,0.4964,0.4986,0.5013,0.5047,0.5069,0.5102,0.5154,0.5162,0.5177,0.5182,0.5186,0.5191,0.5221,0.5228,0.5151,0.5151,0.515,0,0,0.4772,0.4797,0.4817,0.4865,0.4887,0.4921,0.4907,0.4944,0.497,0.497,0.5016,0.5033,0.5065,0.5115,0.5138,0.513,0.5214,0.519,0.5193,0.5196,0.5226,0.5233,0.5239,0.5153,0.5153,0.5152,0,0,0.4818,0.4839,0.4877,0.4899,0.4933,0.4947,0.4956,0.4989,0.5001,0.5048,0.5049,0.508,0.5138,0.5161,0.518,0.5236,0.5235,0.5246,0.5271,0.5301,0.5307,0.5312,0.5333,0.5341,0.5251,0.5251,0.5251,0,0.4832,0.4884,0.4896,0.4933,0.4955,0.4958,0.4996,0.5018,0.506,0.5075,0.5065,0.5139,0.516,0.5217,0.5231,0.5246,0.5258,0.5242,0.5305,0.5311,0.5316,0.5336,0.5344,0.5252,0.5252,0.5252,0.5252,0,0.49,0.4936,0.4963,0.5004,0.5029,0.5067,0.5086,0.5109,0.5114,0.513,0.5178,0.5204,0.5243,0.5257,0.5262,0.5315,0.5309,0.5302,0.5284,0.5324,0.5344,0.5351,0.5254,0.5254,0.5253,0.5253,0,0,0.4949,0.4999,0.5008,0.5028,0.5066,0.5094,0.5133,0.5171,0.5192,0.5221,0.5255,0.5304,0.5299,0.5321,0.5329,0.5355,0.5399,0.5345,0.5346,0.5354,0.5461,0.5466,0.5475,0.5399,0.54,0.5401,0.5458,0,0.4999,0.5067,0.5081,0.514,0.5175,0.5179,0.5212,0.524,0.5256,0.5287,0.5305,0.534,0.5329,0.5343,0.5369,0.5388,0.5421,0.5384,0.543,0.5432,0.5422,0.5484,0.549,0.5542,0.5466,0.5467,0.5468,0,0.5065,0.5098,0.5161,0.5196,0.5211,0.5241,0.5279,0.5309,0.534,0.535,0.5376,0.5381,0.5422,0.5403,0.546,0.5435,0.5455,0.5468,0.547,0.5475,0.5452,0.5492,0.5559,0.5567,0.548,0.5479,0.5478,0,0.5096,0.5155,0.5201,0.5218,0.526,0.5281,0.53,0.533,0.5353,0.5386,0.5401,0.5438,0.5458,0.5487,0.5502,0.5487,0.5559,0.554,0.5569,0.5569,0.5584,0.5582,0.5655,0.5596,0.5596,0.5596,0.5595,0,0.515,0.5189,0.5216,0.5244,0.5288,0.5304,0.5347,0.5365,0.5393,0.5425,0.5431,0.5461,0.548,0.5513,0.5526,0.5572,0.5581,0.559,0.5593,0.559,0.5589,0.5603,0.56,0.5598,0.5597,0.5597,0.5596,0,0.5191,0.521,0.5261,0.5298,0.5308,0.5339,0.537,0.5398,0.5415,0.5456,0.5466,0.5492,0.5532,0.5551,0.5599,0.5608,0.5661,0.5661,0.565,0.5651,0.5679,0.5676,0.5764,0.5777,0.5708,0.5709,0.5709,0,0.5224,0.5254,0.5294,0.5317,0.5336,0.5372,0.5396,0.5413,0.5437,0.5477,0.5501,0.5541,0.5574,0.5637,0.566,0.5698,0.57,0.5728,0.5705,0.5702,0.5701,0.5699,0.5703,0.5732,0.5733,0.5733,0.5734,0,0.5281,0.529,0.5324,0.5363,0.5391,0.5422,0.5452,0.547,0.5492,0.552,0.5561,0.5587,0.5638,0.5678,0.5718,0.5737,0.5739,0.5741,0.5749,0.5746,0.5739,0.5744,0.5662,0.5738,0.5738,0.5738,0.5737,0.5737,0.532,0.5347,0.5381,0.5419,0.5444,0.5473,0.5501,0.5522,0.5557,0.56,0.5608,0.5652,0.5685,0.5739,0.576,0.5795,0.5788,0.58,0.5804,0.5807,0.5809,0.5734,0.5802,0.5802,0.5802,0.5802,0.5802,0,0.5378,0.54,0.5435,0.5478,0.5509,0.5509,0.5543,0.5569,0.5608,0.5638,0.5671,0.5719,0.5759,0.5786,0.5826,0.5849,0.5851,0.5859,0.5857,0.5862,0.5812,0.58,0.5857,0.5857,0.5857,0.5857,0.5857,0.5857,0.5411,0.5459,0.5472,0.5532,0.5554,0.5597,0.5617,0.5644,0.5669,0.5722,0.5756,0.5773,0.5803,0.5846,0.5882,0.5889,0.5904,0.5912,0.5919,0.5871,0.5866,0.586,0.585,0.5915,0.5915,0.5967,0.5967,0.5968]},{"header":{"parameterUnit":"m.s-1","parameterCategory":1,"la1":30.2991,"la2":30.254,"lo1":-89.0895,"lo2":-89.0444,"dy":0.0017,"dx":0.0017,"nx":28,"ny":28,"refTime":"2025-08-06T03:00:00:Z","depth":0,"parameterNumber":3,"parameterNumberName":"V-component_of_WINDS"},"data":[0,0,0,0,0,0,0,0,0,0,0,0,0,0,0,0,0,0,0,0,0,0,0,0,0,0,0,0,0,0,0,0,0,0,0,0,0,0,0,0,0,0,0,0,0,0,0,0,0,0,0,0,0,0,0,0,0,0,-2.4984,-2.4984,0,-2.5045,-2.5045,-2.5046,-2.5072,-2.5072,-2.5072,-2.5072,-2.5131,-2.5132,-2.5134,0,0,0,0,0,0,0,0,0,0,0,0,0,-2.4889,-2.489,-2.4984,-2.4984,-2.4985,-2.5045,-2.5045,-2.5046,-2.5072,-2.5072,-2.5072,-2.5072,-2.513,-2.5132,-2.5134,0,0,0,0,0,0,0,0,0,0,0,0,0,-2.4938,-2.4891,-2.4984,-2.5006,-2.5008,-2.5045,-2.5046,-2.5047,-2.5072,-2.5072,-2.5072,-2.5072,-2.5129,-2.5132,-2.5134,-2.5152,0,0,-2.5142,-2.5143,0,0,0,0,0,0,0,0,-2.4935,-2.4941,-2.5002,-2.5004,-2.5007,-2.5051,-2.5033,-2.5082,-2.5072,-2.5048,-2.5072,-2.5072,-2.5104,-2.5109,-2.512,-2.5155,-2.5157,-2.5142,-2.5144,-2.5145,-2.5145,0,0,0,0,0,0,0,-2.4931,-2.4939,-2.5008,-2.5002,-2.5006,-2.5012,-2.5019,-2.5043,-2.5076,-2.505,-2.5052,-2.5059,-2.5105,-2.5118,-2.5122,-2.5158,-2.5142,-2.5144,-2.5146,-2.5147,-2.5214,-2.5215,0,0,0,0,0,0,-2.4925,-2.4936,-2.5006,-2.501,-2.497,-2.5014,-2.5021,-2.5037,-2.5076,-2.5082,-2.5059,-2.506,-2.5114,-2.5119,-2.5124,-2.515,-2.5145,-2.5147,-2.5148,-2.5214,-2.5214,-2.5215,0,0,0,0,0,0,-2.4923,-2.4931,-2.5003,-2.4973,-2.4983,-2.5016,-2.5033,-2.5038,-2.5051,-2.5083,-2.5088,-2.5066,-2.5114,-2.512,-2.5146,-2.5152,-2.5148,-2.515,-2.5214,-2.5214,-2.5215,-2.52,0,0,0,0,0,0,-2.492,-2.493,-2.4937,-2.4973,-2.4985,-2.5025,-2.5033,-2.5039,-2.5055,-2.5057,-2.509,-2.5096,-2.5114,-2.5142,-2.5148,-2.5155,-2.5152,-2.5213,-2.5214,-2.5214,-2.52,-2.52,-2.52,0,0,0,0,0,-2.4916,-2.4929,-2.4937,-2.4945,-2.4994,-2.5025,-2.5031,-2.5053,-2.5055,-2.5063,-2.5084,-2.5095,-2.515,-2.5145,-2.5152,-2.516,-2.5213,-2.5214,-2.5214,-2.52,-2.52,-2.52,0,0,0,0,0,0,-2.489,-2.4934,-2.4943,-2.4968,-2.4993,-2.5029,-2.5039,-2.5052,-2.5075,-2.5076,-2.5101,-2.5108,-2.5133,-2.5148,-2.5141,-2.5181,-2.5183,-2.5185,-2.5169,-2.5169,-2.5169,-2.5165,-2.5154,0,0,0,0,0,-2.4887,-2.4909,-2.4946,-2.4964,-2.4977,-2.5006,-2.502,-2.5035,-2.5061,-2.5071,-2.5094,-2.5118,-2.5142,-2.5156,-2.5179,-2.5203,-2.5211,-2.5212,-2.5212,-2.5211,-2.5213,-2.5229,-2.5231,-2.5217,-2.5217,-2.5217,0,0,-2.4881,-2.4908,-2.492,-2.496,-2.4981,-2.5003,-2.5014,-2.5037,-2.5054,-2.5074,-2.5101,-2.5119,-2.5148,-2.5173,-2.5185,-2.5187,-2.5219,-2.5212,-2.5212,-2.5214,-2.523,-2.5231,-2.5233,-2.5218,-2.5218,-2.5218,0,0,-2.4882,-2.4904,-2.4923,-2.4945,-2.4978,-2.4998,-2.5003,-2.5038,-2.5052,-2.5079,-2.5096,-2.5117,-2.5155,-2.5176,-2.5192,-2.5205,-2.5216,-2.5212,-2.5211,-2.5226,-2.5228,-2.5229,-2.5235,-2.5237,-2.5213,-2.5213,-2.5213,0,-2.487,-2.4905,-2.4931,-2.4954,-2.4972,-2.4994,-2.5015,-2.5034,-2.5072,-2.5083,-2.5085,-2.5137,-2.5158,-2.519,-2.5194,-2.5205,-2.5212,-2.5208,-2.5226,-2.5227,-2.5228,-2.5235,-2.5237,-2.5213,-2.5213,-2.5213,-2.5213,0,-2.489,-2.4915,-2.4926,-2.4965,-2.4984,-2.5005,-2.5034,-2.5051,-2.5065,-2.5085,-2.5115,-2.5141,-2.5171,-2.518,-2.5192,-2.5214,-2.5215,-2.5221,-2.5223,-2.5229,-2.5235,-2.5238,-2.5212,-2.5212,-2.5212,-2.5212,0,0,-2.4874,-2.493,-2.4934,-2.4953,-2.4993,-2.5012,-2.5035,-2.5067,-2.5081,-2.5107,-2.5128,-2.5162,-2.5169,-2.5187,-2.5203,-2.5216,-2.5228,-2.5221,-2.5222,-2.5223,-2.5256,-2.5252,-2.5255,-2.5236,-2.5237,-2.5237,-2.5255,0,-2.4881,-2.4925,-2.495,-2.4983,-2.5008,-2.5031,-2.5052,-2.5078,-2.5098,-2.5122,-2.5143,-2.5168,-2.5174,-2.5186,-2.5201,-2.5224,-2.5235,-2.5223,-2.5256,-2.5257,-2.5249,-2.5258,-2.5253,-2.5268,-2.5257,-2.5258,-2.5258,0,-2.4895,-2.4924,-2.496,-2.5001,-2.5011,-2.5029,-2.5062,-2.5084,-2.5115,-2.5129,-2.5151,-2.5168,-2.5194,-2.5195,-2.5232,-2.5223,-2.5238,-2.5252,-2.5253,-2.5257,-2.5258,-2.5263,-2.5273,-2.5276,-2.5262,-2.5262,-2.5261,0,-2.4881,-2.4929,-2.4958,-2.4974,-2.5021,-2.5033,-2.5053,-2.5085,-2.5103,-2.5132,-2.5145,-2.5175,-2.5191,-2.5215,-2.524,-2.5238,-2.5275,-2.5277,-2.5288,-2.5287,-2.5294,-2.5293,-2.5308,-2.5302,-2.5302,-2.5302,-2.5302,0,-2.4887,-2.4909,-2.4953,-2.4971,-2.4997,-2.5026,-2.5051,-2.5072,-2.5101,-2.5124,-2.5145,-2.5166,-2.5197,-2.5222,-2.5241,-2.527,-2.5277,-2.5289,-2.5295,-2.5288,-2.5287,-2.5299,-2.5298,-2.5303,-2.5303,-2.5303,-2.5303,0,-2.4876,-2.4906,-2.494,-2.4983,-2.4995,-2.5012,-2.5049,-2.5068,-2.509,-2.5119,-2.5127,-2.5162,-2.5193,-2.5221,-2.526,-2.5274,-2.5304,-2.5309,-2.5294,-2.5297,-2.5306,-2.5305,-2.5329,-2.5334,-2.5324,-2.5324,-2.5324,0,-2.4878,-2.4896,-2.4942,-2.496,-2.4981,-2.5009,-2.5029,-2.5059,-2.5079,-2.5119,-2.5133,-2.5166,-2.5194,-2.5242,-2.527,-2.5302,-2.5309,-2.5315,-2.5314,-2.5308,-2.5311,-2.531,-2.5313,-2.5315,-2.5315,-2.5315,-2.5315,0,-2.4878,-2.4894,-2.4923,-2.4959,-2.4983,-2.5012,-2.5041,-2.5054,-2.509,-2.5112,-2.5145,-2.5167,-2.521,-2.5242,-2.5278,-2.5298,-2.5313,-2.5315,-2.532,-2.5313,-2.5304,-2.5311,-2.5294,-2.5314,-2.5314,-2.5314,-2.5315,-2.5315,-2.4875,-2.4893,-2.493,-2.4963,-2.4989,-2.5017,-2.5038,-2.5065,-2.5093,-2.5132,-2.5148,-2.5182,-2.5216,-2.5265,-2.5286,-2.5313,-2.5316,-2.5321,-2.5323,-2.5324,-2.5324,-2.53,-2.5319,-2.5319,-2.5319,-2.5319,-2.532,0,-2.4878,-2.4904,-2.4934,-2.4977,-2.5003,-2.5017,-2.5051,-2.5072,-2.5102,-2.5133,-2.5162,-2.5201,-2.5234,-2.5267,-2.5301,-2.5317,-2.5325,-2.5325,-2.5325,-2.533,-2.5319,-2.5312,-2.5319,-2.5319,-2.5319,-2.5319,-2.5319,-2.5319,-2.4883,-2.4916,-2.4936,-2.4983,-2.5008,-2.5044,-2.5062,-2.5089,-2.5114,-2.5158,-2.5187,-2.5209,-2.5241,-2.5279,-2.531,-2.5319,-2.5331,-2.533,-2.5341,-2.533,-2.533,-2.533,-2.5324,-2.5332,-2.5332,-2.535,-2.535,-2.535]}]]